Time,TemperatureF,DewpointF,PressureIn,WindDirection,WindDirectionDegrees,WindSpeedMPH,WindSpeedGustMPH,Humidity,HourlyPrecipIn,Conditions,Clouds,dailyrainin,SoftwareType,DateUTC
2013-06-21 00:01:00,53.3,48.6,30.08,SW,225,0.0,0.9,84,0.00,,,0.00,WUHU216HW,2013-06-21 07:01:00,
2013-06-21 00:06:00,53.3,48.6,30.08,SSE,158,0.0,0.9,84,0.00,,,0.00,WUHU216HW,2013-06-21 07:06:00,
2013-06-21 00:11:00,53.3,48.6,30.08,West,270,0.2,0.9,84,0.00,,,0.00,WUHU216HW,2013-06-21 07:11:00,
2013-06-21 00:16:00,53.3,48.6,30.08,West,270,0.0,0.9,84,0.00,,,0.00,WUHU216HW,2013-06-21 07:16:00,
2013-06-21 00:21:00,53.3,48.6,30.08,WSW,248,0.4,0.4,84,0.00,,,0.00,WUHU216HW,2013-06-21 07:21:00,
2013-06-21 00:26:00,53.3,48.6,30.08,SW,225,0.2,0.7,84,0.00,,,0.00,WUHU216HW,2013-06-21 07:26:00,
2013-06-21 00:31:00,53.3,48.6,30.08,SSW,203,0.2,1.6,84,0.00,,,0.00,WUHU216HW,2013-06-21 07:31:00,
2013-06-21 00:36:00,53.3,48.6,30.08,SW,225,0.9,1.6,84,0.00,,,0.00,WUHU216HW,2013-06-21 07:36:00,
2013-06-21 00:41:00,53.3,48.6,30.08,SE,135,0.2,1.1,84,0.00,,,0.00,WUHU216HW,2013-06-21 07:41:00,
2013-06-21 00:46:00,53.3,48.6,30.08,SW,225,0.4,1.1,84,0.00,,,0.00,WUHU216HW,2013-06-21 07:46:00,
2013-06-21 00:51:00,53.3,48.6,30.08,SSW,203,0.2,0.7,84,0.00,,,0.00,WUHU216HW,2013-06-21 07:51:00,
2013-06-21 00:56:00,53.3,48.6,30.08,SSW,203,0.2,0.4,84,0.00,,,0.00,WUHU216HW,2013-06-21 07:56:00,
2013-06-21 01:01:00,53.3,48.6,30.08,SW,225,1.8,1.8,84,0.00,,,0.00,WUHU216HW,2013-06-21 08:01:00,
2013-06-21 01:06:00,53.3,48.6,30.09,WSW,248,0.0,1.8,84,0.00,,,0.00,WUHU216HW,2013-06-21 08:06:00,
2013-06-21 01:11:00,53.3,48.6,30.09,WSW,248,0.4,1.8,84,0.00,,,0.00,WUHU216HW,2013-06-21 08:11:00,
2013-06-21 01:16:00,53.3,48.6,30.09,SE,135,0.0,0.7,84,0.00,,,0.00,WUHU216HW,2013-06-21 08:16:00,
2013-06-21 01:21:00,53.3,48.6,30.09,SE,135,0.0,0.4,84,0.00,,,0.00,WUHU216HW,2013-06-21 08:21:00,
2013-06-21 01:26:00,53.3,48.6,30.09,SSE,158,0.2,0.4,84,0.00,,,0.00,WUHU216HW,2013-06-21 08:26:00,
2013-06-21 01:31:00,53.3,48.6,30.09,SSE,158,0.0,0.4,84,0.00,,,0.00,WUHU216HW,2013-06-21 08:31:00,
2013-06-21 01:36:00,53.3,48.6,30.09,SSE,158,0.0,0.4,84,0.00,,,0.00,WUHU216HW,2013-06-21 08:36:00,
2013-06-21 01:41:00,53.5,48.8,30.08,SSE,158,0.0,0.4,84,0.00,,,0.00,WUHU216HW,2013-06-21 08:41:00,
2013-06-21 01:46:00,53.5,48.8,30.08,SSE,158,0.0,2.0,84,0.00,,,0.00,WUHU216HW,2013-06-21 08:46:00,
2013-06-21 01:51:00,53.3,48.6,30.08,North,0,0.0,2.0,84,0.00,,,0.00,WUHU216HW,2013-06-21 08:51:00,
2013-06-21 01:56:00,53.3,48.6,30.08,North,0,0.0,0.4,84,0.00,,,0.00,WUHU216HW,2013-06-21 08:56:00,
2013-06-21 02:01:00,53.1,48.4,30.08,North,0,0.0,0.2,84,0.00,,,0.00,WUHU216HW,2013-06-21 09:01:00,
2013-06-21 02:06:00,53.3,48.6,30.08,North,0,0.0,0.0,84,0.00,,,0.00,WUHU216HW,2013-06-21 09:06:00,
2013-06-21 02:11:00,53.3,48.6,30.08,WSW,248,0.0,0.2,84,0.00,,,0.00,WUHU216HW,2013-06-21 09:11:00,
2013-06-21 02:16:00,53.3,48.6,30.08,WSW,248,0.0,0.2,84,0.00,,,0.00,WUHU216HW,2013-06-21 09:16:00,
2013-06-21 02:21:00,53.5,48.8,30.09,WSW,248,0.0,0.0,84,0.00,,,0.00,WUHU216HW,2013-06-21 09:21:00,
2013-06-21 02:26:00,53.5,48.8,30.08,WSW,248,0.0,0.0,84,0.00,,,0.00,WUHU216HW,2013-06-21 09:26:00,
2013-06-21 02:31:00,53.5,48.8,30.08,SW,225,0.0,0.0,84,0.00,,,0.00,WUHU216HW,2013-06-21 09:31:00,
2013-06-21 02:36:00,53.5,48.8,30.08,SW,225,0.0,0.0,84,0.00,,,0.00,WUHU216HW,2013-06-21 09:36:00,
2013-06-21 02:41:00,53.5,48.8,30.09,SW,225,0.0,0.0,84,0.00,,,0.00,WUHU216HW,2013-06-21 09:41:00,
2013-06-21 02:46:00,53.5,48.8,30.09,SW,225,0.0,0.0,84,0.00,,,0.00,WUHU216HW,2013-06-21 09:46:00,
2013-06-21 02:51:00,53.5,48.8,30.09,SW,225,0.0,0.0,84,0.00,,,0.00,WUHU216HW,2013-06-21 09:51:00,
2013-06-21 02:56:00,53.5,48.8,30.09,SW,225,0.0,0.0,84,0.00,,,0.00,WUHU216HW,2013-06-21 09:56:00,
2013-06-21 03:01:00,53.5,48.8,30.09,SW,225,0.2,0.2,84,0.00,,,0.00,WUHU216HW,2013-06-21 10:01:00,
2013-06-21 03:06:00,53.5,48.8,30.09,SW,225,0.0,0.4,84,0.00,,,0.00,WUHU216HW,2013-06-21 10:06:00,
2013-06-21 03:11:00,53.5,48.8,30.09,SW,225,0.0,0.4,84,0.00,,,0.00,WUHU216HW,2013-06-21 10:11:00,
2013-06-21 03:16:00,53.5,48.8,30.09,SW,225,0.0,0.0,84,0.00,,,0.00,WUHU216HW,2013-06-21 10:16:00,
2013-06-21 03:21:00,53.5,48.8,30.09,SW,225,0.0,0.0,84,0.00,,,0.00,WUHU216HW,2013-06-21 10:21:00,
2013-06-21 03:26:00,53.3,48.6,30.08,SW,225,0.0,0.0,84,0.00,,,0.00,WUHU216HW,2013-06-21 10:26:00,
2013-06-21 03:31:00,53.3,48.6,30.09,East,90,0.0,0.0,84,0.00,,,0.00,WUHU216HW,2013-06-21 10:31:00,
2013-06-21 03:36:00,53.3,48.6,30.08,East,90,0.0,0.2,84,0.00,,,0.00,WUHU216HW,2013-06-21 10:36:00,
2013-06-21 03:41:00,53.3,48.6,30.09,ENE,68,0.0,0.2,84,0.00,,,0.00,WUHU216HW,2013-06-21 10:41:00,
2013-06-21 03:46:00,53.3,48.6,30.09,SSW,203,0.2,0.7,84,0.00,,,0.00,WUHU216HW,2013-06-21 10:46:00,
2013-06-21 03:51:00,53.3,48.6,30.09,SSW,203,0.0,0.7,84,0.00,,,0.00,WUHU216HW,2013-06-21 10:51:00,
2013-06-21 03:56:00,53.3,48.6,30.09,SSW,203,0.0,0.2,84,0.00,,,0.00,WUHU216HW,2013-06-21 10:56:00,
2013-06-21 04:01:00,53.3,48.6,30.09,SSW,203,0.0,0.0,84,0.00,,,0.00,WUHU216HW,2013-06-21 11:01:00,
2013-06-21 04:06:00,53.3,48.6,30.09,SSW,203,0.0,0.2,84,0.00,,,0.00,WUHU216HW,2013-06-21 11:06:00,
2013-06-21 04:11:00,53.3,48.6,30.09,WSW,248,0.7,0.7,84,0.00,,,0.00,WUHU216HW,2013-06-21 11:11:00,
2013-06-21 04:16:00,53.3,48.6,30.09,WSW,248,0.0,0.7,84,0.00,,,0.00,WUHU216HW,2013-06-21 11:16:00,
2013-06-21 04:21:00,53.3,48.6,30.09,WSW,248,0.0,0.4,84,0.00,,,0.00,WUHU216HW,2013-06-21 11:21:00,
2013-06-21 04:26:00,53.3,48.6,30.09,WSW,248,0.0,0.0,84,0.00,,,0.00,WUHU216HW,2013-06-21 11:26:00,
2013-06-21 04:31:00,53.3,48.2,30.09,WSW,248,0.0,0.0,83,0.00,,,0.00,WUHU216HW,2013-06-21 11:31:00,
2013-06-21 04:36:00,53.3,48.6,30.09,WSW,248,0.0,0.0,84,0.00,,,0.00,WUHU216HW,2013-06-21 11:36:00,
2013-06-21 04:41:00,53.3,48.6,30.09,WSW,248,0.4,0.4,84,0.00,,,0.00,WUHU216HW,2013-06-21 11:41:00,
2013-06-21 04:46:00,53.3,48.6,30.09,SE,135,0.0,0.4,84,0.00,,,0.00,WUHU216HW,2013-06-21 11:46:00,
2013-06-21 04:51:00,53.3,48.6,30.09,ENE,68,0.0,0.4,84,0.00,,,0.00,WUHU216HW,2013-06-21 11:51:00,
2013-06-21 04:56:00,53.3,48.2,30.09,ENE,68,0.0,0.4,83,0.00,,,0.00,WUHU216HW,2013-06-21 11:56:00,
2013-06-21 05:01:00,53.3,48.2,30.09,ENE,68,0.0,0.0,83,0.00,,,0.00,WUHU216HW,2013-06-21 12:01:00,
2013-06-21 05:06:00,53.3,48.2,30.09,ENE,68,0.2,0.2,83,0.00,,,0.00,WUHU216HW,2013-06-21 12:06:00,
2013-06-21 05:11:00,53.3,48.6,30.09,SW,225,0.2,1.1,84,0.00,,,0.00,WUHU216HW,2013-06-21 12:11:00,
2013-06-21 05:16:00,53.3,48.6,30.09,SSE,158,0.4,1.8,84,0.00,,,0.00,WUHU216HW,2013-06-21 12:16:00,
2013-06-21 05:21:00,53.3,48.6,30.09,SE,135,0.0,1.8,84,0.00,,,0.00,WUHU216HW,2013-06-21 12:21:00,
2013-06-21 05:26:00,53.3,48.2,30.09,SW,225,0.0,1.8,83,0.00,,,0.00,WUHU216HW,2013-06-21 12:26:00,
2013-06-21 05:31:00,53.3,48.6,30.09,SW,225,0.0,1.8,84,0.00,,,0.00,WUHU216HW,2013-06-21 12:31:00,
2013-06-21 05:36:00,53.3,48.6,30.09,SW,225,0.2,1.6,84,0.00,,,0.00,WUHU216HW,2013-06-21 12:36:00,
2013-06-21 05:41:00,53.3,48.2,30.09,WSW,248,0.4,1.6,83,0.00,,,0.00,WUHU216HW,2013-06-21 12:41:00,
2013-06-21 05:46:00,53.3,48.6,30.10,WSW,248,0.0,0.4,84,0.00,,,0.00,WUHU216HW,2013-06-21 12:46:00,
2013-06-21 05:51:00,53.3,48.6,30.10,WSW,248,0.0,0.4,84,0.00,,,0.00,WUHU216HW,2013-06-21 12:51:00,
2013-06-21 05:56:00,53.3,48.2,30.10,WSW,248,0.0,0.0,83,0.00,,,0.00,WUHU216HW,2013-06-21 12:56:00,
2013-06-21 06:01:00,53.3,48.2,30.10,WSW,248,0.0,0.0,83,0.00,,,0.00,WUHU216HW,2013-06-21 13:01:00,
2013-06-21 06:06:00,53.3,48.2,30.10,WSW,248,0.0,0.9,83,0.00,,,0.00,WUHU216HW,2013-06-21 13:06:00,
2013-06-21 06:11:00,53.3,48.2,30.10,WSW,248,0.0,0.9,83,0.00,,,0.00,WUHU216HW,2013-06-21 13:11:00,
2013-06-21 06:16:00,53.3,48.2,30.10,WSW,248,0.0,0.4,83,0.00,,,0.00,WUHU216HW,2013-06-21 13:16:00,
2013-06-21 06:21:00,53.3,48.2,30.10,WSW,248,0.0,0.2,83,0.00,,,0.00,WUHU216HW,2013-06-21 13:21:00,
2013-06-21 06:26:00,53.3,48.2,30.11,West,270,0.2,0.2,83,0.00,,,0.00,WUHU216HW,2013-06-21 13:26:00,
2013-06-21 06:31:00,53.3,48.2,30.11,West,270,0.0,0.2,83,0.00,,,0.00,WUHU216HW,2013-06-21 13:31:00,
2013-06-21 06:36:00,53.3,48.2,30.11,NNE,23,0.0,0.4,83,0.00,,,0.00,WUHU216HW,2013-06-21 13:36:00,
2013-06-21 06:41:00,53.3,48.2,30.11,NNE,23,0.0,0.4,83,0.00,,,0.00,WUHU216HW,2013-06-21 13:41:00,
2013-06-21 06:46:00,53.3,48.2,30.11,NNE,23,0.0,0.2,83,0.00,,,0.00,WUHU216HW,2013-06-21 13:46:00,
2013-06-21 06:51:00,53.3,48.2,30.11,WNW,293,0.0,1.1,83,0.00,,,0.00,WUHU216HW,2013-06-21 13:51:00,
2013-06-21 06:56:00,53.3,48.2,30.11,WNW,293,0.0,1.1,83,0.00,,,0.00,WUHU216HW,2013-06-21 13:56:00,
2013-06-21 07:01:00,53.1,48.1,30.12,WNW,293,0.0,0.0,83,0.00,,,0.00,WUHU216HW,2013-06-21 14:01:00,
2013-06-21 07:06:00,53.3,48.2,30.12,WNW,293,0.0,0.0,83,0.00,,,0.00,WUHU216HW,2013-06-21 14:06:00,
2013-06-21 07:11:00,53.3,48.2,30.12,WNW,293,0.0,0.4,83,0.00,,,0.00,WUHU216HW,2013-06-21 14:11:00,
2013-06-21 07:16:00,53.3,48.2,30.12,WNW,293,0.0,0.4,83,0.00,,,0.00,WUHU216HW,2013-06-21 14:16:00,
2013-06-21 07:21:00,53.1,48.1,30.12,WNW,293,0.0,0.2,83,0.00,,,0.00,WUHU216HW,2013-06-21 14:21:00,
2013-06-21 07:26:00,53.3,48.2,30.12,WNW,293,0.0,0.4,83,0.00,,,0.00,WUHU216HW,2013-06-21 14:26:00,
2013-06-21 07:31:00,53.5,48.4,30.12,SSW,203,0.4,0.4,83,0.00,,,0.00,WUHU216HW,2013-06-21 14:31:00,
2013-06-21 07:36:00,53.5,48.4,30.12,SSW,203,0.0,0.4,83,0.00,,,0.00,WUHU216HW,2013-06-21 14:36:00,
2013-06-21 07:41:00,53.5,48.4,30.12,SSW,203,0.0,0.4,83,0.00,,,0.00,WUHU216HW,2013-06-21 14:41:00,
2013-06-21 07:46:00,53.6,48.6,30.12,WSW,248,0.0,0.2,83,0.00,,,0.00,WUHU216HW,2013-06-21 14:46:00,
2013-06-21 07:51:00,53.6,48.6,30.12,NW,315,0.2,0.4,83,0.00,,,0.00,WUHU216HW,2013-06-21 14:51:00,
2013-06-21 07:56:00,53.8,48.8,30.13,ENE,68,0.0,0.7,83,0.00,,,0.00,WUHU216HW,2013-06-21 14:56:00,
2013-06-21 08:01:00,54.0,49.0,30.13,North,0,0.0,0.7,83,0.00,,,0.00,WUHU216HW,2013-06-21 15:01:00,
2013-06-21 08:07:00,54.0,49.0,30.13,North,0,0.2,0.4,83,0.00,,,0.00,WUHU216HW,2013-06-21 15:07:00,
2013-06-21 08:12:00,54.4,49.0,30.13,NW,315,0.0,0.4,82,0.00,,,0.00,WUHU216HW,2013-06-21 15:12:00,
2013-06-21 08:17:00,54.4,49.0,30.13,NW,315,0.0,0.4,82,0.00,,,0.00,WUHU216HW,2013-06-21 15:17:00,
2013-06-21 08:22:00,54.5,49.1,30.13,SE,135,0.0,0.2,82,0.00,,,0.00,WUHU216HW,2013-06-21 15:22:00,
2013-06-21 08:27:00,54.7,49.3,30.13,NNE,23,0.0,0.7,82,0.00,,,0.00,WUHU216HW,2013-06-21 15:27:00,
2013-06-21 08:32:00,54.7,49.3,30.13,SW,225,0.4,0.7,82,0.00,,,0.00,WUHU216HW,2013-06-21 15:32:00,
2013-06-21 08:37:00,54.9,49.5,30.13,SSW,203,0.0,0.9,82,0.00,,,0.00,WUHU216HW,2013-06-21 15:37:00,
2013-06-21 08:42:00,55.3,49.8,30.13,SSW,203,0.0,0.9,82,0.00,,,0.00,WUHU216HW,2013-06-21 15:42:00,
2013-06-21 08:47:00,55.6,50.1,30.13,SSE,158,0.0,0.4,82,0.00,,,0.00,WUHU216HW,2013-06-21 15:47:00,
2013-06-21 08:52:00,55.8,50.3,30.13,SE,135,0.4,0.9,82,0.00,,,0.00,WUHU216HW,2013-06-21 15:52:00,
2013-06-21 08:57:00,56.3,50.9,30.14,South,180,0.4,0.9,82,0.00,,,0.00,WUHU216HW,2013-06-21 15:57:00,
2013-06-21 09:02:00,57.2,52.1,30.14,SE,135,0.0,0.7,83,0.00,,,0.00,WUHU216HW,2013-06-21 16:02:00,
2013-06-21 09:08:00,58.0,52.8,30.14,North,0,0.7,0.9,83,0.00,,,0.00,WUHU216HW,2013-06-21 16:08:00,
2013-06-21 09:13:00,58.3,53.2,30.14,SE,135,0.4,1.1,83,0.00,,,0.00,WUHU216HW,2013-06-21 16:13:00,
2013-06-21 09:18:00,58.3,53.2,30.13,SE,135,0.2,1.1,83,0.00,,,0.00,WUHU216HW,2013-06-21 16:18:00,
2013-06-21 09:23:00,58.3,53.2,30.13,ESE,113,0.0,1.1,83,0.00,,,0.00,WUHU216HW,2013-06-21 16:23:00,
2013-06-21 09:28:00,58.0,52.8,30.13,ENE,68,1.1,2.5,83,0.00,,,0.00,WUHU216HW,2013-06-21 16:28:00,
2013-06-21 09:33:00,57.4,52.3,30.13,NE,45,2.2,2.5,83,0.00,,,0.00,WUHU216HW,2013-06-21 16:33:00,
2013-06-21 09:38:00,57.6,52.5,30.13,North,0,0.9,2.2,83,0.00,,,0.00,WUHU216HW,2013-06-21 16:38:00,
2013-06-21 09:43:00,58.1,53.0,30.13,NE,45,0.9,2.2,83,0.00,,,0.00,WUHU216HW,2013-06-21 16:43:00,
2013-06-21 09:48:00,58.3,53.2,30.13,SSW,203,1.8,1.8,83,0.00,,,0.00,WUHU216HW,2013-06-21 16:48:00,
2013-06-21 09:53:00,58.5,53.4,30.13,ESE,113,0.4,2.2,83,0.00,,,0.00,WUHU216HW,2013-06-21 16:53:00,
2013-06-21 09:58:00,58.7,53.6,30.14,SW,225,1.3,3.1,83,0.00,,,0.00,WUHU216HW,2013-06-21 16:58:00,
2013-06-21 10:03:00,58.5,53.4,30.14,ESE,113,0.7,3.1,83,0.00,,,0.00,WUHU216HW,2013-06-21 17:03:00,
2013-06-21 10:08:00,58.5,53.4,30.14,WSW,248,0.4,2.2,83,0.00,,,0.00,WUHU216HW,2013-06-21 17:08:00,
2013-06-21 10:13:00,58.7,53.6,30.13,SSE,158,0.2,0.7,83,0.00,,,0.00,WUHU216HW,2013-06-21 17:13:00,
2013-06-21 10:18:00,58.7,53.2,30.13,ESE,113,0.2,1.1,82,0.00,,,0.00,WUHU216HW,2013-06-21 17:18:00,
2013-06-21 10:23:00,58.7,53.2,30.14,ESE,113,0.0,1.1,82,0.00,,,0.00,WUHU216HW,2013-06-21 17:23:00,
2013-06-21 10:28:00,58.9,53.4,30.14,South,180,0.0,1.1,82,0.00,,,0.00,WUHU216HW,2013-06-21 17:28:00,
2013-06-21 10:33:00,59.0,53.6,30.14,WSW,248,1.6,1.6,82,0.00,,,0.00,WUHU216HW,2013-06-21 17:33:00,
2013-06-21 10:38:00,59.4,53.9,30.14,SW,225,0.9,2.5,82,0.00,,,0.00,WUHU216HW,2013-06-21 17:38:00,
2013-06-21 10:43:00,60.1,54.6,30.14,SSW,203,0.4,2.5,82,0.00,,,0.00,WUHU216HW,2013-06-21 17:43:00,
2013-06-21 10:46:00,60.3,54.8,30.14,WSW,248,1.8,3.1,82,0.00,,,0.00,WUHU216HW,2013-06-21 17:46:00,
2013-06-21 10:47:00,60.7,54.9,30.14,SE,135,0.4,3.1,81,0.00,,,0.00,WUHU216HW,2013-06-21 17:47:00,
2013-06-21 10:52:00,60.5,54.7,30.14,ENE,68,0.4,3.1,81,0.00,,,0.00,WUHU216HW,2013-06-21 17:52:00,
2013-06-21 10:57:00,60.3,54.6,30.14,SE,135,0.2,2.5,81,0.00,,,0.00,WUHU216HW,2013-06-21 17:57:00,
2013-06-21 11:03:00,60.1,54.4,30.14,East,90,0.7,0.7,81,0.00,,,0.00,WUHU216HW,2013-06-21 18:03:00,
2013-06-21 11:08:00,60.1,54.4,30.14,ENE,68,0.2,1.3,81,0.00,,,0.00,WUHU216HW,2013-06-21 18:08:00,
2013-06-21 11:13:00,60.1,54.4,30.15,North,0,2.2,2.5,81,0.00,,,0.00,WUHU216HW,2013-06-21 18:13:00,
2013-06-21 11:18:00,59.9,53.8,30.15,SSE,158,0.9,4.5,80,0.00,,,0.00,WUHU216HW,2013-06-21 18:18:00,
2013-06-21 11:23:00,60.1,54.4,30.15,ESE,113,0.4,4.5,81,0.00,,,0.00,WUHU216HW,2013-06-21 18:23:00,
2013-06-21 11:28:00,60.5,54.7,30.15,SSE,158,0.4,1.6,81,0.00,,,0.00,WUHU216HW,2013-06-21 18:28:00,
2013-06-21 11:33:00,61.0,54.9,30.15,SE,135,0.4,1.3,80,0.00,,,0.00,WUHU216HW,2013-06-21 18:33:00,
2013-06-21 11:38:00,62.1,55.5,30.15,ESE,113,0.7,2.9,79,0.00,,,0.00,WUHU216HW,2013-06-21 18:38:00,
2013-06-21 11:44:00,63.2,56.2,30.14,SSE,158,0.2,2.9,78,0.00,,,0.00,WUHU216HW,2013-06-21 18:44:00,
2013-06-21 11:45:00,63.7,57.1,30.15,WSW,248,1.6,2.5,79,0.00,,,0.00,WUHU216HW,2013-06-21 18:45:00,
2013-06-21 11:46:00,63.7,57.1,30.15,SSW,203,0.9,2.5,79,0.00,,,0.00,WUHU216HW,2013-06-21 18:46:00,
2013-06-21 11:51:00,63.7,56.3,30.15,SE,135,0.2,1.8,77,0.00,,,0.00,WUHU216HW,2013-06-21 18:51:00,
2013-06-21 11:56:00,63.4,55.6,30.15,SE,135,0.0,1.6,76,0.00,,,0.00,WUHU216HW,2013-06-21 18:56:00,
2013-06-21 12:01:00,63.0,55.3,30.15,ESE,113,0.4,1.6,76,0.00,,,0.00,WUHU216HW,2013-06-21 19:01:00,
2013-06-21 12:06:00,62.5,54.7,30.15,SSW,203,0.4,1.6,76,0.00,,,0.00,WUHU216HW,2013-06-21 19:06:00,
2013-06-21 12:11:00,62.3,54.2,30.14,NW,315,0.2,1.3,75,0.00,,,0.00,WUHU216HW,2013-06-21 19:11:00,
2013-06-21 12:16:00,62.3,54.2,30.15,SSW,203,0.4,0.7,75,0.00,,,0.00,WUHU216HW,2013-06-21 19:16:00,
2013-06-21 12:20:00,62.1,53.7,30.14,South,180,0.4,2.9,74,0.00,,,0.00,WUHU216HW,2013-06-21 19:20:00,
2013-06-21 12:25:00,62.1,53.7,30.14,South,180,0.0,2.9,74,0.00,,,0.00,WUHU216HW,2013-06-21 19:25:00,
2013-06-21 12:30:00,62.1,54.1,30.14,WSW,248,1.1,2.5,75,0.00,,,0.00,WUHU216HW,2013-06-21 19:30:00,
2013-06-21 12:35:00,61.9,53.9,30.14,WSW,248,1.3,2.5,75,0.00,,,0.00,WUHU216HW,2013-06-21 19:35:00,
2013-06-21 12:40:00,61.9,53.9,30.14,WSW,248,2.2,2.2,75,0.00,,,0.00,WUHU216HW,2013-06-21 19:40:00,
2013-06-21 12:42:00,62.1,54.1,30.14,WNW,293,0.9,2.2,75,0.00,,,0.00,WUHU216HW,2013-06-21 19:42:00,
2013-06-21 12:48:00,62.5,54.0,30.14,ENE,68,0.9,2.2,74,0.00,,,0.00,WUHU216HW,2013-06-21 19:48:00,
2013-06-21 12:53:00,62.6,54.2,30.14,East,90,0.4,1.3,74,0.00,,,0.00,WUHU216HW,2013-06-21 19:53:00,
2013-06-21 12:58:00,63.2,54.0,30.14,East,90,1.8,2.7,72,0.00,,,0.00,WUHU216HW,2013-06-21 19:58:00,
2013-06-21 13:03:00,63.9,54.0,30.14,SSE,158,0.4,2.7,70,0.00,,,0.00,WUHU216HW,2013-06-21 20:03:00,
2013-06-21 13:04:00,64.1,54.2,30.14,ENE,68,2.5,2.9,70,0.00,,,0.00,WUHU216HW,2013-06-21 20:04:00,
2013-06-21 13:08:00,64.4,52.8,30.14,ENE,68,3.4,4.3,66,0.00,,,0.00,WUHU216HW,2013-06-21 20:08:00,
2013-06-21 13:12:00,64.1,52.5,30.14,NE,45,3.1,5.4,66,0.00,,,0.00,WUHU216HW,2013-06-21 20:12:00,
2013-06-21 13:14:00,64.1,52.9,30.14,North,0,1.1,5.4,67,0.00,,,0.00,WUHU216HW,2013-06-21 20:14:00,
2013-06-21 13:19:00,64.4,52.8,30.14,NE,45,2.5,5.4,66,0.00,,,0.00,WUHU216HW,2013-06-21 20:19:00,
2013-06-21 13:24:00,64.4,51.5,30.13,NNE,23,3.4,4.9,63,0.00,,,0.00,WUHU216HW,2013-06-21 20:24:00,
2013-06-21 13:29:00,64.4,52.4,30.14,North,0,0.9,4.9,65,0.00,,,0.00,WUHU216HW,2013-06-21 20:29:00,
2013-06-21 13:34:00,64.8,53.2,30.14,ENE,68,2.5,4.0,66,0.00,,,0.00,WUHU216HW,2013-06-21 20:34:00,
2013-06-21 13:39:00,64.8,52.3,30.14,East,90,2.5,4.5,64,0.00,,,0.00,WUHU216HW,2013-06-21 20:39:00,
2013-06-21 13:44:00,64.8,52.3,30.14,East,90,4.3,6.0,64,0.00,,,0.00,WUHU216HW,2013-06-21 20:44:00,
2013-06-21 13:49:00,65.2,52.2,30.13,ESE,113,0.7,6.0,63,0.00,,,0.00,WUHU216HW,2013-06-21 20:49:00,
2013-06-21 13:54:00,65.9,53.4,30.14,ENE,68,2.9,4.9,64,0.00,,,0.00,WUHU216HW,2013-06-21 20:54:00,
2013-06-21 13:59:00,66.2,52.8,30.14,NNW,338,0.9,4.9,62,0.00,,,0.00,WUHU216HW,2013-06-21 20:59:00,
2013-06-21 14:04:00,66.6,52.7,30.13,NE,45,0.2,4.7,61,0.00,,,0.00,WUHU216HW,2013-06-21 21:04:00,
2013-06-21 14:09:00,66.4,52.2,30.13,NE,45,6.3,6.3,60,0.00,,,0.00,WUHU216HW,2013-06-21 21:09:00,
2013-06-21 14:14:00,65.9,51.7,30.13,ESE,113,3.8,6.7,60,0.00,,,0.00,WUHU216HW,2013-06-21 21:14:00,
2013-06-21 14:19:00,65.5,52.1,30.13,East,90,2.5,6.7,62,0.00,,,0.00,WUHU216HW,2013-06-21 21:19:00,
2013-06-21 14:24:00,65.9,52.5,30.13,ENE,68,1.8,5.8,62,0.00,,,0.00,WUHU216HW,2013-06-21 21:24:00,
2013-06-21 14:29:00,66.2,52.5,30.13,NNE,23,1.8,5.4,61,0.00,,,0.00,WUHU216HW,2013-06-21 21:29:00,
2013-06-21 14:34:00,67.0,53.1,30.13,NW,315,2.5,5.4,61,0.00,,,0.00,WUHU216HW,2013-06-21 21:34:00,
2013-06-21 14:39:00,67.5,53.2,30.13,NE,45,4.5,4.7,60,0.00,,,0.00,WUHU216HW,2013-06-21 21:39:00,
2013-06-21 14:44:00,68.0,53.2,30.13,NE,45,5.4,5.4,59,0.00,,,0.00,WUHU216HW,2013-06-21 21:44:00,
2013-06-21 14:49:00,68.4,52.0,30.13,North,0,4.3,5.4,56,0.00,,,0.00,WUHU216HW,2013-06-21 21:49:00,
2013-06-21 14:54:00,68.2,52.8,30.13,North,0,1.6,5.4,58,0.00,,,0.00,WUHU216HW,2013-06-21 21:54:00,
2013-06-21 14:59:00,68.4,52.6,30.13,ENE,68,1.8,4.5,57,0.00,,,0.00,WUHU216HW,2013-06-21 21:59:00,
2013-06-21 15:04:00,68.0,50.8,30.13,ESE,113,2.5,4.7,54,0.00,,,0.00,WUHU216HW,2013-06-21 22:04:00,
2013-06-21 15:09:00,67.7,51.8,30.13,North,0,5.1,5.1,57,0.00,,,0.00,WUHU216HW,2013-06-21 22:09:00,
2013-06-21 15:14:00,68.4,52.6,30.13,North,0,4.3,5.1,57,0.00,,,0.00,WUHU216HW,2013-06-21 22:14:00,
2013-06-21 15:19:00,68.8,52.4,30.13,NE,45,4.7,5.6,56,0.00,,,0.00,WUHU216HW,2013-06-21 22:19:00,
2013-06-21 15:24:00,68.0,50.2,30.13,NE,45,3.4,5.6,53,0.00,,,0.00,WUHU216HW,2013-06-21 22:24:00,
2013-06-21 15:29:00,67.3,51.0,30.14,North,0,2.7,4.7,56,0.00,,,0.00,WUHU216HW,2013-06-21 22:29:00,
2013-06-21 15:34:00,67.1,50.9,30.13,NNE,23,2.2,4.7,56,0.00,,,0.00,WUHU216HW,2013-06-21 22:34:00,
2013-06-21 15:39:00,67.0,50.8,30.13,NNE,23,3.4,4.0,56,0.00,,,0.00,WUHU216HW,2013-06-21 22:39:00,
2013-06-21 15:44:00,66.4,50.8,30.13,East,90,1.1,3.8,57,0.00,,,0.00,WUHU216HW,2013-06-21 22:44:00,
2013-06-21 15:49:00,66.2,50.6,30.13,ENE,68,0.9,3.4,57,0.00,,,0.00,WUHU216HW,2013-06-21 22:49:00,
2013-06-21 15:54:00,66.4,51.2,30.13,NE,45,2.7,3.6,58,0.00,,,0.00,WUHU216HW,2013-06-21 22:54:00,
2013-06-21 15:59:00,67.0,50.8,30.13,East,90,2.9,3.8,56,0.00,,,0.00,WUHU216HW,2013-06-21 22:59:00,
2013-06-21 16:04:00,67.3,52.5,30.13,ENE,68,4.7,5.4,59,0.00,,,0.00,WUHU216HW,2013-06-21 23:04:00,
2013-06-21 16:09:00,66.8,52.0,30.13,East,90,2.5,5.8,59,0.00,,,0.00,WUHU216HW,2013-06-21 23:09:00,
2013-06-21 16:14:00,67.0,52.7,30.13,North,0,3.8,5.8,60,0.00,,,0.00,WUHU216HW,2013-06-21 23:14:00,
2013-06-21 16:19:00,67.3,53.0,30.13,East,90,4.9,5.1,60,0.00,,,0.00,WUHU216HW,2013-06-21 23:19:00,
2013-06-21 16:24:00,67.5,52.7,30.13,East,90,2.5,5.1,59,0.00,,,0.00,WUHU216HW,2013-06-21 23:24:00,
2013-06-21 16:29:00,67.5,51.7,30.13,ENE,68,4.5,4.9,57,0.00,,,0.00,WUHU216HW,2013-06-21 23:29:00,
2013-06-21 16:34:00,67.3,52.0,30.13,ENE,68,4.7,5.4,58,0.00,,,0.00,WUHU216HW,2013-06-21 23:34:00,
2013-06-21 16:39:00,66.8,52.0,30.13,East,90,2.5,5.8,59,0.00,,,0.00,WUHU216HW,2013-06-21 23:39:00,
2013-06-21 16:44:00,66.1,51.4,30.12,NNE,23,2.0,5.8,59,0.00,,,0.00,WUHU216HW,2013-06-21 23:44:00,
2013-06-21 16:49:00,66.1,52.3,30.12,ESE,113,1.1,4.0,61,0.00,,,0.00,WUHU216HW,2013-06-21 23:49:00,
2013-06-21 16:54:00,66.6,51.8,30.12,East,90,2.2,4.5,59,0.00,,,0.00,WUHU216HW,2013-06-21 23:54:00,
2013-06-21 16:59:00,66.8,52.5,30.12,North,0,0.2,4.5,60,0.00,,,0.00,WUHU216HW,2013-06-21 23:59:00,
2013-06-21 17:04:00,67.3,52.5,30.12,ESE,113,1.3,5.1,59,0.00,,,0.00,WUHU216HW,2013-06-22 00:04:00,
2013-06-21 17:09:00,67.5,53.2,30.12,NE,45,1.1,5.1,60,0.00,,,0.00,WUHU216HW,2013-06-22 00:09:00,
2013-06-21 17:14:00,67.3,53.0,30.12,ESE,113,0.4,2.7,60,0.00,,,0.00,WUHU216HW,2013-06-22 00:14:00,
2013-06-21 17:19:00,67.1,52.4,30.12,North,0,0.9,2.9,59,0.00,,,0.00,WUHU216HW,2013-06-22 00:19:00,
2013-06-21 17:24:00,67.1,52.8,30.12,NW,315,1.3,2.9,60,0.00,,,0.00,WUHU216HW,2013-06-22 00:24:00,
2013-06-21 17:29:00,67.3,53.0,30.12,East,90,1.3,1.8,60,0.00,,,0.00,WUHU216HW,2013-06-22 00:29:00,
2013-06-21 17:34:00,67.1,52.8,30.12,ESE,113,1.1,2.0,60,0.00,,,0.00,WUHU216HW,2013-06-22 00:34:00,
2013-06-21 17:39:00,66.6,51.8,30.12,NE,45,1.8,4.0,59,0.00,,,0.00,WUHU216HW,2013-06-22 00:39:00,
2013-06-21 17:44:00,65.3,51.6,30.12,East,90,1.1,4.0,61,0.00,,,0.00,WUHU216HW,2013-06-22 00:44:00,
2013-06-21 17:49:00,64.6,51.3,30.12,East,90,0.0,2.2,62,0.00,,,0.00,WUHU216HW,2013-06-22 00:49:00,
2013-06-21 17:54:00,64.3,51.4,30.12,East,90,0.0,1.1,63,0.00,,,0.00,WUHU216HW,2013-06-22 00:54:00,
2013-06-21 17:59:00,64.3,51.8,30.11,East,90,0.4,1.1,64,0.00,,,0.00,WUHU216HW,2013-06-22 00:59:00,
2013-06-21 18:04:00,64.6,52.1,30.11,ENE,68,1.3,1.8,64,0.00,,,0.00,WUHU216HW,2013-06-22 01:04:00,
2013-06-21 18:09:00,65.5,52.6,30.11,NE,45,1.1,1.8,63,0.00,,,0.00,WUHU216HW,2013-06-22 01:09:00,
2013-06-21 18:14:00,65.7,51.5,30.11,NE,45,3.6,3.8,60,0.00,,,0.00,WUHU216HW,2013-06-22 01:14:00,
2013-06-21 18:19:00,65.3,51.1,30.11,NE,45,1.8,3.8,60,0.00,,,0.00,WUHU216HW,2013-06-22 01:19:00,
2013-06-21 18:24:00,65.0,50.8,30.11,ENE,68,1.8,3.6,60,0.00,,,0.00,WUHU216HW,2013-06-22 01:24:00,
2013-06-21 18:29:00,64.8,51.0,30.11,North,0,1.1,2.5,61,0.00,,,0.00,WUHU216HW,2013-06-22 01:29:00,
2013-06-21 18:34:00,65.0,50.8,30.11,East,90,2.7,3.4,60,0.00,,,0.00,WUHU216HW,2013-06-22 01:34:00,
2013-06-21 18:39:00,65.0,50.3,30.11,NNE,23,2.2,3.6,59,0.00,,,0.00,WUHU216HW,2013-06-22 01:39:00,
2013-06-21 18:44:00,65.2,50.5,30.11,NE,45,2.2,3.6,59,0.00,,,0.00,WUHU216HW,2013-06-22 01:44:00,
2013-06-21 18:49:00,65.3,50.7,30.11,NE,45,1.6,3.6,59,0.00,,,0.00,WUHU216HW,2013-06-22 01:49:00,
2013-06-21 18:54:00,65.5,51.3,30.11,North,0,1.3,2.7,60,0.00,,,0.00,WUHU216HW,2013-06-22 01:54:00,
2013-06-21 18:59:00,65.5,50.3,30.11,ENE,68,2.5,3.4,58,0.00,,,0.00,WUHU216HW,2013-06-22 01:59:00,
2013-06-21 19:04:00,65.2,50.0,30.11,ENE,68,1.3,3.4,58,0.00,,,0.00,WUHU216HW,2013-06-22 02:04:00,
2013-06-21 19:09:00,65.0,50.8,30.11,NE,45,1.1,3.4,60,0.00,,,0.00,WUHU216HW,2013-06-22 02:09:00,
2013-06-21 19:14:00,65.2,50.9,30.11,North,0,0.4,3.4,60,0.00,,,0.00,WUHU216HW,2013-06-22 02:14:00,
2013-06-21 19:19:00,65.3,51.1,30.11,North,0,0.9,2.7,60,0.00,,,0.00,WUHU216HW,2013-06-22 02:19:00,
2013-06-21 19:24:00,65.5,51.3,30.11,North,0,1.1,2.0,60,0.00,,,0.00,WUHU216HW,2013-06-22 02:24:00,
2013-06-21 19:29:00,65.5,51.3,30.11,NNE,23,2.0,2.7,60,0.00,,,0.00,WUHU216HW,2013-06-22 02:29:00,
2013-06-21 19:34:00,65.9,51.7,30.11,East,90,1.1,2.7,60,0.00,,,0.00,WUHU216HW,2013-06-22 02:34:00,
2013-06-21 19:39:00,65.9,51.7,30.11,ENE,68,1.1,2.0,60,0.00,,,0.00,WUHU216HW,2013-06-22 02:39:00,
2013-06-21 19:44:00,65.9,51.7,30.11,East,90,0.4,1.6,60,0.00,,,0.00,WUHU216HW,2013-06-22 02:44:00,
2013-06-21 19:49:00,66.4,51.7,30.10,NNE,23,0.2,1.1,59,0.00,,,0.00,WUHU216HW,2013-06-22 02:49:00,
2013-06-21 19:54:00,66.6,51.8,30.11,NNE,23,1.1,1.3,59,0.00,,,0.00,WUHU216HW,2013-06-22 02:54:00,
2013-06-21 19:59:00,66.6,51.8,30.11,North,0,0.4,2.0,59,0.00,,,0.00,WUHU216HW,2013-06-22 02:59:00,
2013-06-21 20:04:00,66.2,51.6,30.11,North,0,0.0,2.5,59,0.00,,,0.00,WUHU216HW,2013-06-22 03:04:00,
2013-06-21 20:09:00,65.9,51.2,30.11,North,0,0.0,2.5,59,0.00,,,0.00,WUHU216HW,2013-06-22 03:09:00,
2013-06-21 20:14:00,65.5,51.8,30.11,SW,225,0.4,0.9,61,0.00,,,0.00,WUHU216HW,2013-06-22 03:14:00,
2013-06-21 20:19:00,65.2,51.8,30.11,SW,225,0.4,0.9,62,0.00,,,0.00,WUHU216HW,2013-06-22 03:19:00,
2013-06-21 20:24:00,64.4,51.5,30.11,WSW,248,0.4,1.3,63,0.00,,,0.00,WUHU216HW,2013-06-22 03:24:00,
2013-06-21 20:29:00,63.9,51.5,30.11,WSW,248,0.9,1.3,64,0.00,,,0.00,WUHU216HW,2013-06-22 03:29:00,
2013-06-21 20:34:00,63.4,51.4,30.11,WSW,248,1.1,1.6,65,0.00,,,0.00,WUHU216HW,2013-06-22 03:34:00,
2013-06-21 20:39:00,62.8,51.3,30.10,WSW,248,1.1,1.6,66,0.00,,,0.00,WUHU216HW,2013-06-22 03:39:00,
2013-06-21 20:44:00,62.5,51.0,30.11,WSW,248,0.4,1.3,66,0.00,,,0.00,WUHU216HW,2013-06-22 03:44:00,
2013-06-21 20:49:00,62.1,51.0,30.10,WSW,248,1.1,1.3,67,0.00,,,0.00,WUHU216HW,2013-06-22 03:49:00,
2013-06-21 20:54:00,61.7,51.1,30.10,WSW,248,0.4,1.1,68,0.00,,,0.00,WUHU216HW,2013-06-22 03:54:00,
2013-06-21 20:59:00,61.4,51.2,30.11,SW,225,1.1,1.1,69,0.00,,,0.00,WUHU216HW,2013-06-22 03:59:00,
2013-06-21 21:01:00,61.2,51.0,30.11,SW,225,1.1,1.3,69,0.00,,,0.00,WUHU216HW,2013-06-22 04:01:00,
2013-06-21 21:06:00,60.8,50.7,30.11,SW,225,1.1,1.3,69,0.00,,,0.00,WUHU216HW,2013-06-22 04:06:00,
2013-06-21 21:11:00,60.7,50.5,30.11,WSW,248,1.1,1.6,69,0.00,,,0.00,WUHU216HW,2013-06-22 04:11:00,
2013-06-21 21:16:00,60.3,50.1,30.11,WSW,248,1.6,1.8,69,0.00,,,0.00,WUHU216HW,2013-06-22 04:16:00,
2013-06-21 21:21:00,60.1,50.0,30.11,SW,225,1.1,1.8,69,0.00,,,0.00,WUHU216HW,2013-06-22 04:21:00,
2013-06-21 21:26:00,59.8,50.0,30.11,SW,225,2.0,2.0,70,0.00,,,0.00,WUHU216HW,2013-06-22 04:26:00,
2013-06-21 21:31:00,59.4,49.7,30.11,WSW,248,1.8,2.0,70,0.00,,,0.00,WUHU216HW,2013-06-22 04:31:00,
2013-06-21 21:36:00,59.0,49.7,30.12,WSW,248,1.8,2.7,71,0.00,,,0.00,WUHU216HW,2013-06-22 04:36:00,
2013-06-21 21:41:00,58.7,49.3,30.12,SW,225,1.8,2.7,71,0.00,,,0.00,WUHU216HW,2013-06-22 04:41:00,
2013-06-21 21:46:00,58.5,49.5,30.12,WSW,248,2.0,2.7,72,0.00,,,0.00,WUHU216HW,2013-06-22 04:46:00,
2013-06-21 21:51:00,58.3,49.7,30.12,SW,225,1.1,2.7,73,0.00,,,0.00,WUHU216HW,2013-06-22 04:51:00,
2013-06-21 21:56:00,58.1,49.5,30.12,WSW,248,0.7,2.2,73,0.00,,,0.00,WUHU216HW,2013-06-22 04:56:00,
2013-06-21 22:01:00,58.0,49.3,30.12,SW,225,1.3,2.2,73,0.00,,,0.00,WUHU216HW,2013-06-22 05:01:00,
2013-06-21 22:06:00,58.0,49.7,30.12,SW,225,1.6,2.2,74,0.00,,,0.00,WUHU216HW,2013-06-22 05:06:00,
2013-06-21 22:11:00,57.8,49.5,30.12,WSW,248,2.2,2.2,74,0.00,,,0.00,WUHU216HW,2013-06-22 05:11:00,
2013-06-21 22:16:00,57.6,49.7,30.12,WSW,248,1.1,2.5,75,0.00,,,0.00,WUHU216HW,2013-06-22 05:16:00,
2013-06-21 22:21:00,57.4,49.5,30.12,SW,225,1.8,2.5,75,0.00,,,0.00,WUHU216HW,2013-06-22 05:21:00,
2013-06-21 22:26:00,57.2,49.3,30.12,SW,225,1.8,2.5,75,0.00,,,0.00,WUHU216HW,2013-06-22 05:26:00,
2013-06-21 22:31:00,57.2,49.7,30.12,SW,225,0.2,1.8,76,0.00,,,0.00,WUHU216HW,2013-06-22 05:31:00,
2013-06-21 22:36:00,57.2,49.7,30.12,SW,225,0.2,1.6,76,0.00,,,0.00,WUHU216HW,2013-06-22 05:36:00,
2013-06-21 22:41:00,57.1,49.5,30.12,SW,225,1.1,1.1,76,0.00,,,0.00,WUHU216HW,2013-06-22 05:41:00,
2013-06-21 22:46:00,56.9,49.3,30.12,SW,225,0.4,1.3,76,0.00,,,0.00,WUHU216HW,2013-06-22 05:46:00,
2013-06-21 22:51:00,56.7,49.1,30.12,SW,225,0.4,1.3,76,0.00,,,0.00,WUHU216HW,2013-06-22 05:51:00,
2013-06-21 22:56:00,56.5,49.3,30.12,SW,225,0.4,0.9,77,0.00,,,0.00,WUHU216HW,2013-06-22 05:56:00,
2013-06-21 23:01:00,56.5,49.3,30.12,SW,225,0.4,1.1,77,0.00,,,0.00,WUHU216HW,2013-06-22 06:01:00,
2013-06-21 23:06:00,56.3,49.1,30.12,SW,225,1.1,1.6,77,0.00,,,0.00,WUHU216HW,2013-06-22 06:06:00,
2013-06-21 23:11:00,56.2,49.3,30.12,SW,225,0.4,1.6,78,0.00,,,0.00,WUHU216HW,2013-06-22 06:11:00,
2013-06-21 23:16:00,56.2,49.3,30.12,SW,225,0.4,1.3,78,0.00,,,0.00,WUHU216HW,2013-06-22 06:16:00,
2013-06-21 23:21:00,56.0,49.1,30.12,SW,225,0.0,1.3,78,0.00,,,0.00,WUHU216HW,2013-06-22 06:21:00,
2013-06-21 23:26:00,55.8,49.0,30.11,SW,225,0.0,0.7,78,0.00,,,0.00,WUHU216HW,2013-06-22 06:26:00,
2013-06-21 23:31:00,55.8,49.0,30.11,SW,225,0.4,1.1,78,0.00,,,0.00,WUHU216HW,2013-06-22 06:31:00,
2013-06-21 23:36:00,55.4,49.0,30.11,SW,225,0.4,1.1,79,0.00,,,0.00,WUHU216HW,2013-06-22 06:36:00,
2013-06-21 23:41:00,55.4,49.0,30.11,SW,225,0.4,1.1,79,0.00,,,0.00,WUHU216HW,2013-06-22 06:41:00,
2013-06-21 23:46:00,55.3,48.5,30.11,SW,225,0.7,1.1,78,0.00,,,0.00,WUHU216HW,2013-06-22 06:46:00,
2013-06-21 23:51:00,55.3,48.5,30.11,WSW,248,1.1,1.1,78,0.00,,,0.00,WUHU216HW,2013-06-22 06:51:00,
2013-06-21 23:56:00,55.1,48.3,30.11,WSW,248,1.1,1.3,78,0.00,,,0.00,WUHU216HW,2013-06-22 06:56:00,